User: anonymous   Login
Location: Unspecified
(0.0000°N, 0.0000°E)
Time: 07:11:06
(UTC+00:00)
Language:

OPS 7613 P/L 1 - Orbit

View from above orbital plane
View from above orbital plane
View from above satellite
View from above satellite

Ground track
Ground track

The orbit data is extracted from the following two-line orbital elements,

1  4256U 69082B   18267.96710178 -.00000035 +00000-0 +12859-4 0  9993
2  4256 070.0082 261.7217 0018303 166.6193 193.5403 13.98305036495875
Epoch (UTC): 24 September 2018 23:12:37
Eccentricity: 0.0018303
inclination: 70.0082°
perigee height: 886 km
apogee height: 913 km
right ascension of ascending node: 261.7217°
argument of perigee: 166.6193°
revolutions per day: 13.98305036
mean anomaly at epoch: 193.5403°
orbit number at epoch: 49587

The dashed part of the orbit path shows where the satellite is in the earth's shadow,  

DLR